Flag for United Kingdom Weather past 2 weeks in Swindon, England, United Kingdom

Now
43 °F

Overcast.


Feels Like: 37 °F
Forecast: 34 / 52 °F
Wind: 10 mph from North

Location: Brize Norton

Current Time: Apr 26, 2015 at 7:34:24 AM

Latest Report: Apr 26, 2015 at 6:50 AM


Visibility: N/A

Pressure: 29.74 "Hg

Humidity: 87%

Dew point: 39 °F

Location of SwindonLocation

Historic Weather in Swindon — Graph

°F

Swindon temperature yesterday

Maximum temperature yesterday: 63 °F (at 2:50 PM)
Minimum temperature yesterday: 46 °F (at 11:50 PM)
Average temperature yesterday: 55 °F

Past Weeks' High & Low Weather Summary

 TemperatureHumidityPressure
High72 °F (Apr 15, 3:50 PM)100% (Apr 15, 4:50 AM)30.57 "Hg (Apr 15, 4:50 AM)
Low36 °F (Apr 20, 5:50 AM)26% (Apr 11, 2:50 PM)29.65 "Hg (Apr 25, 4:50 AM)
Average51 °F68%30.17 "Hg
* Reported Apr 11 5:50 AM — Apr 26 5:50 AM, Swindon, Weather by CustomWeather, © 2015

Note: Actual official high and low records may vary slightly from our data, if they occured in-between our weather recording intervals... More about our weather records

Advertising

Swindon weather history for previous 24 hours

 ConditionsComfort  
Time TempWeatherWind HumidityBarometerVisibility
5:50 AM
Sun, Apr 26
43 °FPassing clouds.10 mph87%29.74 "HgN/A
4:50 AM45 °FPartly cloudy.10 mph93%29.71 "HgN/A
3:50 AM46 °FPassing clouds.8 mph87%29.74 "HgN/A
2:50 AM45 °FPartly cloudy.9 mph93%29.71 "HgN/A
1:50 AM45 °FLow clouds.10 mph93%29.71 "HgN/A
12:50 AM45 °FLight rain. Partly cloudy.9 mph100%29.71 "Hg4 mi
11:50 PM
Sat, Apr 25
46 °FLight rain. Partly cloudy.8 mph93%29.71 "HgN/A
10:50 PM48 °FLight rain. Partly cloudy.7 mph87%29.71 "HgN/A
9:50 PM50 °FLight rain. Partly cloudy.9 mph88%29.71 "HgN/A
8:50 PM54 °FRain. Broken clouds.3 mph94%29.68 "Hg3 mi
7:50 PM54 °FHeavy rain. Broken clouds.6 mph94%29.68 "Hg2 mi
6:50 PM55 °FRain. Partly sunny.9 mph88%29.65 "HgN/A
5:50 PM61 °FScattered clouds.7 mph55%29.65 "HgN/A
4:50 PM61 °FPartly sunny.8 mph52%29.65 "HgN/A
3:50 PM61 °FScattered clouds.9 mph52%29.65 "HgN/A
2:50 PM63 °FScattered clouds.9 mph45%29.65 "HgN/A
1:50 PM61 °FScattered clouds.9 mph52%29.65 "HgN/A
12:50 PM59 °FPartly sunny.12 mph51%29.68 "HgN/A
11:50 AM59 °FPartly sunny.12 mph55%29.68 "HgN/A
10:50 AM57 °FBroken clouds.9 mph63%29.68 "HgN/A
9:50 AM55 °FBroken clouds.9 mph72%29.65 "HgN/A
8:50 AM55 °FPartly sunny.7 mph77%29.65 "HgN/A
7:50 AM52 °FBroken clouds.6 mph94%29.65 "HgN/A
Weather by CustomWeather, © 2015

See weather overviewHow to use our weather pages